Weather History for Alamogordo, NM

Change the Weather History Date:

Saturday, March 29, 2014

  Actual Average Record
Temperature  
Mean Temperature 55 °F -  
Max Temperature 75 °F 68 °F 84 °F (1967)
Min Temperature 35 °F 40 °F 22 °F (1987)
Degree Days  
Heating Degree Days 10    
Growing Degree Days 5 (Base 50)    
Moisture  
Dew Point 20 °F    
Average Humidity 26    
Maximum Humidity 52    
Minimum Humidity 12    
Precipitation  
Precipitation 0.00 in - - ()
Sea Level Pressure  
Sea Level Pressure 30.18 in    
Wind  
Wind Speed 7 mph (South)    
Max Wind Speed 16 mph    
Max Gust Speed 26 mph    
Visibility 10 miles    
Events      
Averages and records for this station are not official NWS values.
T = Trace of Precipitation, MM = Missing Value Source: NWS Daily Summary

Daily Weather History Graph

Daily Weather History Graph

Search for Another Location

Airport:

Trip Planner

Search our weather history database for the weather conditions in past years. The results will help you decide how hot, cold, wet, or windy it might be!

Date:

Astronomy

Mar. 29, 2014 Rise Set
Actual Time 6:55 AM MDT 7:22 PM MDT
Civil Twilight 6:31 AM MDT 7:46 PM MDT
Nautical Twilight 6:02 AM MDT 8:15 PM MDT
Astronomical Twilight 5:32 AM MDT 8:45 PM MDT
Moon 6:02 AM MDT (3/29) 6:31 PM MDT (3/29)
Length of Visible Light 13h 15m
Length of Day
12h 26m
Waning Crescent, 1% of the Moon is Illuminated
Mar 29
Waning Crescent
Mar 30
New
Apr 7
First Quarter
Apr 15
Full
Apr 22
Last Quarter

Hourly Weather History & Observations

Time (MDT) Temp. Windchill Dew Point Humidity Pressure Visibility Wind Dir Wind Speed Gust Speed Precip Events Conditions
12:15 AM 46.4 °F 45.2 °F 17.6 °F 32% 30.17 in 10.0 mi SE 3.5 mph - N/A   Clear
12:35 AM 48.2 °F - 17.6 °F 30% 30.17 in 10.0 mi South 4.6 mph - N/A   Clear
12:55 AM 48.2 °F - 17.6 °F 30% 30.18 in 10.0 mi South 5.8 mph - N/A   Clear
1:15 AM 46.4 °F 44.3 °F 17.6 °F 32% 30.19 in 10.0 mi SSE 4.6 mph - N/A   Clear
1:35 AM 48.2 °F - 17.6 °F 30% 30.18 in 10.0 mi NE 11.5 mph - N/A   Clear
1:55 AM 48.2 °F - 19.4 °F 32% 30.18 in 10.0 mi NE 10.4 mph - N/A   Clear
2:15 AM 48.2 °F - 17.6 °F 30% 30.18 in 10.0 mi NNE 6.9 mph - N/A   Clear
2:35 AM 48.2 °F - 19.4 °F 32% 30.18 in 10.0 mi NNE 6.9 mph - N/A   Clear
2:55 AM 50.0 °F - 19.4 °F 30% 30.18 in 10.0 mi North 5.8 mph - N/A   Clear
3:15 AM 46.4 °F 41.9 °F 19.4 °F 34% 30.18 in 10.0 mi NNW 9.2 mph - N/A   Clear
3:35 AM 48.2 °F - 17.6 °F 30% 30.18 in 10.0 mi NW 9.2 mph - N/A   Clear
3:55 AM 42.8 °F 38.6 °F 19.4 °F 39% 30.18 in 10.0 mi North 6.9 mph - N/A   Clear
4:15 AM 39.2 °F 37.0 °F 19.4 °F 45% 30.18 in 10.0 mi East 3.5 mph - N/A   Clear
4:35 AM 39.2 °F 35.9 °F 19.4 °F 45% 30.18 in 10.0 mi SSE 4.6 mph - N/A   Clear
4:55 AM 35.6 °F 29.9 °F 19.4 °F 52% 30.18 in 10.0 mi SSE 6.9 mph - N/A   Clear
5:15 AM 37.4 °F 32.8 °F 19.4 °F 48% 30.19 in 10.0 mi SE 5.8 mph - N/A   Clear
5:35 AM 39.2 °F 37.0 °F 17.6 °F 42% 30.18 in 10.0 mi East 3.5 mph - N/A   Clear
5:55 AM 41.0 °F 39.0 °F 17.6 °F 39% 30.19 in 10.0 mi SSW 3.5 mph - N/A   Clear
6:15 AM 37.4 °F 32.8 °F 19.4 °F 48% 30.20 in 10.0 mi South 5.8 mph - N/A   Clear
6:35 AM 37.4 °F 32.1 °F 17.6 °F 45% 30.20 in 10.0 mi South 6.9 mph - N/A   Clear
6:55 AM 37.4 °F - 17.6 °F 45% 30.21 in 10.0 mi Calm Calm - N/A   Clear
7:15 AM 35.6 °F 30.7 °F 17.6 °F 48% 30.22 in 10.0 mi SSW 5.8 mph - N/A   Clear
7:35 AM 37.4 °F - 17.6 °F 45% 30.24 in 10.0 mi Calm Calm - N/A   Clear
7:55 AM 39.2 °F - 17.6 °F 42% 30.25 in 10.0 mi Calm Calm - N/A   Clear
8:15 AM 41.0 °F 38.0 °F 17.6 °F 39% 30.26 in 10.0 mi South 4.6 mph - N/A   Clear
8:35 AM 44.6 °F 42.2 °F 19.4 °F 37% 30.27 in 10.0 mi SE 4.6 mph - N/A   Clear
8:55 AM 48.2 °F - 19.4 °F 32% 30.28 in 10.0 mi SSE 6.9 mph - N/A   Clear
9:15 AM 53.6 °F - 19.4 °F 26% 30.28 in 10.0 mi South 6.9 mph - N/A   Clear
9:35 AM 55.4 °F - 19.4 °F 25% 30.28 in 10.0 mi South 11.5 mph - N/A   Clear
9:55 AM 57.2 °F - 19.4 °F 23% 30.29 in 10.0 mi South 10.4 mph - N/A   Clear
10:15 AM 59.0 °F - 19.4 °F 22% 30.29 in 10.0 mi South 9.2 mph - N/A   Clear
10:35 AM 60.8 °F - 17.6 °F 19% 30.29 in 10.0 mi WSW 5.8 mph - N/A   Clear
10:55 AM 62.6 °F - 17.6 °F 18% 30.29 in 10.0 mi SSW 5.8 mph - N/A   Clear
11:15 AM 62.6 °F - 17.6 °F 18% 30.28 in 10.0 mi Calm Calm - N/A   Clear
11:35 AM 64.4 °F - 17.6 °F 16% 30.28 in 10.0 mi Calm Calm - N/A   Clear
11:55 AM 66.2 °F - 19.4 °F 17% 30.27 in 10.0 mi SSW 5.8 mph - N/A   Clear
12:15 PM 68.0 °F - 19.4 °F 16% 30.26 in 10.0 mi South 9.2 mph - N/A   Clear
12:35 PM 71.6 °F - 23.0 °F 16% 30.25 in 10.0 mi South 10.4 mph 25.3 mph N/A   Clear
12:55 PM 71.6 °F - 21.2 °F 15% 30.24 in 10.0 mi SSW 16.1 mph 23.0 mph N/A   Clear
1:15 PM 71.6 °F - 23.0 °F 16% 30.23 in 10.0 mi SSW 16.1 mph 24.2 mph N/A   Clear
1:35 PM 71.6 °F - 24.8 °F 17% 30.21 in 10.0 mi SSW 12.7 mph 21.9 mph N/A   Clear
1:55 PM 71.6 °F - 23.0 °F 16% 30.20 in 10.0 mi SSW 16.1 mph 26.5 mph N/A   Clear
2:15 PM 73.4 °F - 23.0 °F 15% 30.20 in 10.0 mi SSW 13.8 mph 17.3 mph N/A   Clear
2:35 PM 73.4 °F - 23.0 °F 15% 30.18 in 10.0 mi South 11.5 mph 18.4 mph N/A   Clear
2:55 PM 73.4 °F - 23.0 °F 15% 30.17 in 10.0 mi South 12.7 mph 20.7 mph N/A   Clear
3:15 PM 73.4 °F - 19.4 °F 13% 30.15 in 10.0 mi SSW 10.4 mph 17.3 mph N/A   Clear
3:35 PM 73.4 °F - 21.2 °F 14% 30.14 in 10.0 mi SSW 8.1 mph 20.7 mph N/A   Clear
3:55 PM 73.4 °F - 23.0 °F 15% 30.13 in 10.0 mi SSW 11.5 mph 20.7 mph N/A   Clear
4:15 PM 73.4 °F - 23.0 °F 15% 30.12 in 10.0 mi South 8.1 mph 18.4 mph N/A   Clear
4:35 PM 73.4 °F - 23.0 °F 15% 30.12 in 10.0 mi South 12.7 mph 18.4 mph N/A   Clear
4:55 PM 75.2 °F - 19.4 °F 12% 30.10 in 10.0 mi SSW 15.0 mph 19.6 mph N/A   Clear
5:15 PM 73.4 °F - 19.4 °F 13% 30.10 in 10.0 mi SSW 13.8 mph 21.9 mph N/A   Clear
5:35 PM 73.4 °F - 23.0 °F 15% 30.09 in 10.0 mi South 15.0 mph 20.7 mph N/A   Clear
5:55 PM 73.4 °F - 21.2 °F 14% 30.09 in 10.0 mi South 13.8 mph 19.6 mph N/A   Clear
6:15 PM 71.6 °F - 19.4 °F 14% 30.09 in 10.0 mi South 12.7 mph - N/A   Clear
6:35 PM 71.6 °F - 21.2 °F 15% 30.08 in 10.0 mi South 10.4 mph - N/A   Clear
6:55 PM 71.6 °F - 21.2 °F 15% 30.08 in 10.0 mi SSE 11.5 mph - N/A   Clear
7:15 PM 68.0 °F - 21.2 °F 17% 30.08 in 10.0 mi South 10.4 mph - N/A   Clear
7:35 PM 66.2 °F - 23.0 °F 19% 30.09 in 10.0 mi SSE 10.4 mph - N/A   Clear
7:55 PM 64.4 °F - 23.0 °F 21% 30.09 in 10.0 mi SSE 9.2 mph - N/A   Clear
8:15 PM 62.6 °F - 23.0 °F 22% 30.09 in 10.0 mi SSE 9.2 mph - N/A   Clear
8:35 PM 59.0 °F - 23.0 °F 25% 30.09 in 10.0 mi South 6.9 mph - N/A   Clear
8:55 PM 59.0 °F - 23.0 °F 25% 30.10 in 10.0 mi SSE 6.9 mph - N/A   Clear
9:15 PM 57.2 °F - 23.0 °F 27% 30.11 in 10.0 mi SSE 6.9 mph - N/A   Clear
9:35 PM 57.2 °F - 24.8 °F 29% 30.11 in 10.0 mi South 6.9 mph - N/A   Clear
9:55 PM 57.2 °F - 23.0 °F 27% 30.12 in 10.0 mi South 8.1 mph - N/A   Clear
10:15 PM 55.4 °F - 24.8 °F 31% 30.11 in 10.0 mi South 6.9 mph - N/A   Clear
10:35 PM 55.4 °F - 23.0 °F 29% 30.12 in 10.0 mi South 4.6 mph - N/A   Clear
10:55 PM 57.2 °F - 23.0 °F 27% 30.11 in 10.0 mi Calm Calm - N/A   Clear
11:15 PM 59.0 °F - 23.0 °F 25% 30.11 in 10.0 mi SSW 3.5 mph - N/A   Clear
11:35 PM 55.4 °F - 21.2 °F 26% 30.11 in 10.0 mi Calm Calm - N/A   Clear
11:55 PM 55.4 °F - 21.2 °F 26% 30.11 in 10.0 mi Calm Calm - N/A   Clear